| time (UTC) | temp F | wind direction | speed knots | gust knots | rain 1hr in | rain 24hr in | rain mn in | humidity % | barometer mb |
| 20260505211849 | 52 | 146 | 0.9 | 1.7 | 0.00 | 0.20 | 0.04 | 85 | 1010.8 |
| 20260505211339 | 52 | 145 | 0.9 | 1.7 | 0.00 | 0.20 | 0.04 | 88 | 1010.9 |
| 20260505210848 | 51 | 145 | 0.0 | 1.7 | 0.00 | 0.20 | 0.04 | 87 | 1011.0 |
| 20260505210336 | 52 | 145 | 0.0 | 0.9 | 0.00 | 0.20 | 0.04 | 86 | 1010.9 |
| 20260505205848 | 53 | 145 | 0.0 | 0.9 | 0.00 | 0.20 | 0.04 | 84 | 1010.8 |
| 20260505205339 | 54 | 145 | 0.0 | 0.9 | 0.00 | 0.20 | 0.04 | 83 | 1010.8 |
| 20260505204849 | 54 | 145 | 0.0 | 2.6 | 0.00 | 0.20 | 0.04 | 82 | 1010.8 |
| 20260505204339 | 54 | 145 | 0.9 | 2.6 | 0.00 | 0.20 | 0.04 | 82 | 1010.9 |
| 20260505203853 | 54 | 143 | 1.7 | 2.6 | 0.00 | 0.20 | 0.04 | 82 | 1010.9 |
| 20260505203342 | 54 | 144 | 0.0 | 2.6 | 0.00 | 0.20 | 0.04 | 83 | 1010.9 |
| 20260505202852 | 54 | 144 | 0.9 | 2.6 | 0.00 | 0.20 | 0.04 | 84 | 1010.9 |
| 20260505202341 | 54 | 144 | 0.9 | 1.7 | 0.00 | 0.20 | 0.04 | 84 | 1010.7 |
| 20260505201850 | 54 | 144 | 0.0 | 0.9 | 0.00 | 0.20 | 0.04 | 85 | 1010.7 |
| 20260505201340 | 54 | 144 | 0.0 | 1.7 | 0.00 | 0.20 | 0.04 | 85 | 1010.7 |
| 20260505200850 | 54 | 144 | 0.0 | 1.7 | 0.00 | 0.20 | 0.04 | 85 | 1010.6 |
| 20260505200341 | 54 | 144 | 0.9 | 1.7 | 0.00 | 0.20 | 0.04 | 86 | 1010.6 |
| 20260505195344 | 54 | 144 | 0.9 | 1.7 | 0.00 | 0.20 | 0.04 | 87 | 1010.4 |
| 20260505194851 | 54 | 144 | 0.0 | 1.7 | 0.00 | 0.20 | 0.04 | 87 | 1010.4 |
| 20260505194340 | 54 | 144 | 0.0 | 4.3 | 0.00 | 0.20 | 0.04 | 87 | 1010.4 |
| 20260505193850 | 53 | 147 | 1.7 | 3.5 | 0.00 | 0.20 | 0.04 | 89 | 1010.4 |
| 20260505193339 | 54 | 147 | 0.9 | 1.7 | 0.00 | 0.20 | 0.04 | 89 | 1010.4 |
| 20260505192849 | 54 | 147 | 0.0 | 1.7 | 0.00 | 0.20 | 0.04 | 88 | 1010.4 |
| 20260505192336 | 54 | 147 | 0.0 | 0.9 | 0.00 | 0.20 | 0.04 | 87 | 1010.3 |
| 20260505191846 | 55 | 146 | 0.9 | 0.9 | 0.00 | 0.20 | 0.04 | 87 | 1010.3 |
| 20260505191337 | 55 | 146 | 0.0 | 0.9 | 0.00 | 0.20 | 0.04 | 86 | 1010.1 |
| 20260505190849 | 55 | 147 | 0.0 | 0.9 | 0.00 | 0.20 | 0.04 | 86 | 1010.1 |
| 20260505190336 | 55 | 146 | 0.0 | 0.9 | 0.00 | 0.20 | 0.04 | 86 | 1010.0 |
| 20260505185846 | 55 | 146 | 0.0 | 0.9 | 0.00 | 0.20 | 0.04 | 85 | 1009.9 |
| 20260505185336 | 56 | 146 | 0.0 | 0.9 | 0.00 | 0.20 | 0.04 | 84 | 1009.9 |
| 20260505184848 | 57 | 147 | 0.0 | 0.0 | 0.00 | 0.20 | 0.04 | 83 | 1009.9 |
| 20260505184338 | 57 | 147 | 0.0 | 0.0 | 0.00 | 0.20 | 0.04 | 82 | 1009.9 |
| 20260505183849 | 57 | 147 | 0.0 | 1.7 | 0.00 | 0.20 | 0.04 | 81 | 1009.9 |
| 20260505183340 | 58 | 147 | 0.0 | 2.6 | 0.00 | 0.20 | 0.04 | 80 | 1009.7 |
| 20260505182853 | 58 | 146 | 0.9 | 2.6 | 0.00 | 0.20 | 0.04 | 79 | 1009.7 |
| 20260505182342 | 58 | 153 | 0.9 | 3.5 | 0.00 | 0.20 | 0.04 | 78 | 1009.7 |
| 20260505181851 | 59 | 141 | 1.7 | 4.3 | 0.00 | 0.20 | 0.04 | 77 | 1009.8 |
| 20260505181341 | 59 | 139 | 1.7 | 4.3 | 0.00 | 0.20 | 0.04 | 76 | 1009.8 |
| 20260505180850 | 60 | 144 | 0.9 | 4.3 | 0.00 | 0.20 | 0.04 | 75 | 1009.8 |
| 20260505180340 | 60 | 152 | 0.0 | 7.0 | 0.00 | 0.20 | 0.04 | 74 | 1009.8 |
| 20260505175850 | 60 | 199 | 1.7 | 7.8 | 0.00 | 0.20 | 0.04 | 74 | 1009.7 |
| 20260505175340 | 61 | 142 | 3.5 | 6.1 | 0.00 | 0.20 | 0.04 | 74 | 1009.8 |
| 20260505174834 | 61 | 145 | 1.7 | 6.1 | 0.00 | 0.20 | 0.04 | 75 | 1009.7 |
| 20260505174344 | 60 | 257 | 0.9 | 3.5 | 0.00 | 0.20 | 0.04 | 77 | 1009.7 |
| 20260505173835 | 59 | 136 | 0.9 | 2.6 | 0.00 | 0.20 | 0.04 | 79 | 1009.9 |
| 20260505173344 | 58 | 142 | 0.0 | 7.0 | 0.00 | 0.20 | 0.04 | 81 | 1009.9 |
| 20260505172834 | 58 | 143 | 0.0 | 7.0 | 0.00 | 0.20 | 0.04 | 81 | 1009.9 |
| 20260505172343 | 58 | 159 | 0.9 | 6.1 | 0.00 | 0.20 | 0.04 | 81 | 1009.7 |
| 20260505171852 | 58 | 151 | 2.6 | 6.1 | 0.00 | 0.20 | 0.04 | 81 | 1009.6 |
| 20260505171341 | 58 | 145 | 1.7 | 5.2 | 0.00 | 0.20 | 0.04 | 82 | 1009.5 |
| 20260505170851 | 57 | 152 | 0.9 | 5.2 | 0.00 | 0.20 | 0.04 | 82 | 1009.5 |
| 20260505170345 | 57 | 236 | 1.7 | 5.2 | 0.00 | 0.20 | 0.04 | 82 | 1009.7 |
| 20260505165834 | 57 | 141 | 1.7 | 5.2 | 0.00 | 0.20 | 0.04 | 83 | 1009.7 |
| 20260505165346 | 57 | 195 | 0.9 | 4.3 | 0.00 | 0.20 | 0.04 | 83 | 1009.6 |
| 20260505164835 | 57 | 174 | 1.7 | 4.3 | 0.00 | 0.20 | 0.04 | 83 | 1009.6 |
| 20260505164344 | 57 | 138 | 0.0 | 3.5 | 0.00 | 0.20 | 0.04 | 82 | 1009.6 |
| 20260505163834 | 57 | 147 | 0.9 | 4.3 | 0.00 | 0.20 | 0.04 | 82 | 1009.7 |
| 20260505163343 | 57 | 137 | 0.9 | 4.3 | 0.00 | 0.20 | 0.04 | 82 | 1009.8 |
| 20260505162852 | 57 | 136 | 0.0 | 5.2 | 0.00 | 0.20 | 0.04 | 82 | 1009.6 |
| 20260505162343 | 57 | 149 | 1.7 | 5.2 | 0.00 | 0.20 | 0.04 | 82 | 1009.7 |
| 20260505161837 | 57 | 150 | 0.9 | 6.1 | 0.00 | 0.20 | 0.04 | 82 | 1009.8 |
| 20260505161347 | 57 | 144 | 0.9 | 3.5 | 0.00 | 0.20 | 0.04 | 82 | 1009.8 |
| 20260505160837 | 57 | 148 | 0.9 | 3.5 | 0.00 | 0.20 | 0.04 | 82 | 1009.9 |
| 20260505160349 | 57 | 132 | 0.0 | 3.5 | 0.00 | 0.59 | 0.04 | 82 | 1009.9 |
| 20260505153351 | 58 | 30 | 1.7 | 6.1 | 0.00 | 0.59 | 0.04 | 76 | 1009.8 |
| 20260505152841 | 58 | 61 | 2.6 | 6.1 | 0.00 | 0.59 | 0.04 | 77 | 1009.8 |
| 20260505152350 | 58 | 141 | 1.7 | 5.2 | 0.00 | 0.59 | 0.04 | 78 | 1009.8 |
| 20260505151840 | 58 | 300 | 0.9 | 3.5 | 0.00 | 0.59 | 0.04 | 80 | 1009.7 |
| 20260505151350 | 57 | 128 | 0.9 | 4.3 | 0.00 | 0.59 | 0.04 | 81 | 1009.7 |
| 20260505150839 | 57 | 311 | 0.9 | 4.3 | 0.00 | 0.59 | 0.04 | 81 | 1009.7 |
| 20260505150350 | 57 | 265 | 1.7 | 4.3 | 0.00 | 0.63 | 0.04 | 81 | 1009.7 |
| 20260505140354 | 61 | 1 | 1.7 | 5.2 | 0.00 | 0.63 | 0.04 | 77 | 1009.3 |
| 20260505124847 | 62 | 212 | 0.0 | 5.2 | 0.00 | 0.63 | 0.04 | 75 | 1009.6 |
| 20260505124341 | 62 | 244 | 1.7 | 3.5 | 0.00 | 0.63 | 0.04 | 75 | 1009.6 |
| 20260505123851 | 62 | 167 | 0.9 | 2.6 | 0.00 | 0.63 | 0.04 | 77 | 1009.6 |
| 20260505123339 | 61 | 306 | 0.9 | 3.5 | 0.00 | 0.63 | 0.04 | 78 | 1009.6 |
| 20260505122848 | 61 | 178 | 0.9 | 3.5 | 0.00 | 0.63 | 0.04 | 79 | 1009.6 |
| 20260505122336 | 61 | 240 | 0.9 | 3.5 | 0.00 | 0.63 | 0.04 | 79 | 1009.6 |
| 20260505121847 | 61 | 188 | 0.0 | 3.5 | 0.00 | 0.63 | 0.04 | 80 | 1009.7 |
| 20260505121337 | 61 | 291 | 0.0 | 1.7 | 0.00 | 0.63 | 0.04 | 82 | 1009.6 |
| 20260505120348 | 60 | 259 | 0.0 | 3.5 | 0.00 | 0.63 | 0.04 | 82 | 1009.7 |
| 20260505115841 | 60 | 184 | 1.7 | 3.5 | 0.04 | 0.63 | 0.04 | 84 | 1009.7 |
| 20260505115351 | 59 | 288 | 0.0 | 2.6 | 0.04 | 0.63 | 0.04 | 86 | 1009.7 |
| 20260505114841 | 59 | 223 | 0.9 | 3.5 | 0.04 | 0.63 | 0.04 | 85 | 1009.8 |
| 20260505114351 | 58 | 150 | 0.0 | 3.5 | 0.04 | 0.63 | 0.04 | 86 | 1009.7 |
| 20260505113840 | 58 | 179 | 0.9 | 3.5 | 0.04 | 0.63 | 0.04 | 86 | 1009.8 |
| 20260505113349 | 58 | 124 | 0.0 | 0.9 | 0.08 | 0.63 | 0.04 | 89 | 1009.9 |
| 20260505112838 | 57 | 290 | 0.0 | 0.9 | 0.08 | 0.63 | 0.04 | 88 | 1009.9 |
| 20260505112347 | 57 | 169 | 0.0 | 0.9 | 0.12 | 0.63 | 0.04 | 89 | 1010.0 |
| 20260505111841 | 57 | 120 | 0.0 | 0.9 | 0.12 | 0.63 | 0.04 | 88 | 1009.9 |
| 20260505111351 | 57 | 120 | 0.0 | 0.9 | 0.12 | 0.63 | 0.04 | 89 | 1009.9 |
| 20260505110841 | 57 | 283 | 0.0 | 0.9 | 0.12 | 0.63 | 0.04 | 88 | 1009.9 |
| 20260505110351 | 56 | 283 | 0.0 | 0.9 | 0.12 | 0.63 | 0.04 | 88 | 1009.9 |
| 20260505101840 | 56 | 146 | 0.9 | 2.6 | 0.00 | 0.51 | 0.02 | 89 | 1010.4 |
| 20260505101351 | 56 | 202 | 0.0 | 2.6 | 0.00 | 0.51 | 0.02 | 89 | 1010.4 |
| 20260505100840 | 56 | 148 | 0.0 | 1.7 | 0.00 | 0.51 | 0.02 | 88 | 1010.3 |
| 20260505100351 | 56 | 201 | 0.0 | 0.0 | 0.00 | 0.51 | 0.02 | 88 | 1010.2 |
| 20260505095841 | 55 | 201 | 0.0 | 1.7 | 0.00 | 0.51 | 0.02 | 88 | 1010.1 |
| 20260505095335 | 55 | 193 | 0.0 | 2.6 | 0.00 | 0.51 | 0.02 | 88 | 1010.2 |
| 20260505094844 | 55 | 143 | 0.9 | 2.6 | 0.00 | 0.51 | 0.02 | 88 | 1010.2 |
| 20260505094353 | 56 | 136 | 0.0 | 1.7 | 0.00 | 0.51 | 0.02 | 89 | 1010.1 |
| 20260505093843 | 55 | 264 | 0.0 | 0.9 | 0.00 | 0.51 | 0.02 | 89 | 1010.1 |
| 20260505092842 | 55 | 268 | 0.0 | 0.9 | 0.00 | 0.51 | 0.02 | 89 | 1010.0 |
| 20260505092351 | 55 | 314 | 0.0 | 1.7 | 0.00 | 0.51 | 0.02 | 90 | 1010.0 |
| 20260505091841 | 55 | 165 | 0.0 | 1.7 | 0.00 | 0.51 | 0.02 | 89 | 1010.0 |
| 20260505091351 | 55 | 343 | 0.0 | 0.9 | 0.00 | 0.51 | 0.02 | 90 | 1010.0 |
| 20260505090845 | 54 | 343 | 0.0 | 0.9 | 0.00 | 0.51 | 0.02 | 90 | 1010.1 |
| 20260505090354 | 54 | 205 | 0.0 | 0.9 | 0.00 | 0.51 | 0.02 | 91 | 1010.1 |
| 20260505085843 | 54 | 259 | 0.0 | 2.6 | 0.00 | 0.51 | 0.02 | 91 | 1010.0 |
| 20260505084850 | 54 | 295 | 0.0 | 0.9 | 0.00 | 0.51 | 0.02 | 91 | 1010.3 |
| 20260505084341 | 54 | 295 | 0.0 | 1.7 | 0.00 | 0.51 | 0.02 | 91 | 1010.2 |
| 20260505083851 | 54 | 294 | 0.0 | 1.7 | 0.00 | 0.51 | 0.02 | 92 | 1010.2 |
| 20260505083340 | 54 | 297 | 0.0 | 0.9 | 0.00 | 0.51 | 0.02 | 93 | 1010.2 |
| 20260505082834 | 53 | 297 | 0.0 | 1.7 | 0.00 | 0.51 | 0.02 | 94 | 1010.3 |
| 20260505082345 | 53 | 294 | 0.0 | 1.7 | 0.04 | 0.51 | 0.02 | 93 | 1010.4 |
| 20260505081834 | 53 | 133 | 0.0 | 2.6 | 0.04 | 0.51 | 0.02 | 94 | 1010.4 |
| 20260505081344 | 53 | 140 | 0.9 | 2.6 | 0.04 | 0.51 | 0.02 | 94 | 1010.4 |
| 20260505080835 | 53 | 125 | 0.0 | 3.5 | 0.04 | 0.51 | 0.02 | 94 | 1010.4 |
| 20260505080345 | 53 | 134 | 0.9 | 3.5 | 0.04 | 0.51 | 0.02 | 94 | 1010.4 |
| 20260505075835 | 53 | 200 | 0.0 | 0.9 | 0.04 | 0.51 | 0.02 | 94 | 1010.5 |
| 20260505075345 | 53 | 193 | 0.0 | 1.7 | 0.04 | 0.51 | 0.02 | 94 | 1010.5 |
| 20260505074852 | 53 | 193 | 0.0 | 1.7 | 0.08 | 0.51 | 0.02 | 95 | 1010.6 |
| 20260505074346 | 52 | 193 | 0.0 | 0.0 | 0.08 | 0.51 | 0.02 | 95 | 1010.7 |
| 20260505073853 | 52 | 193 | 0.0 | 0.0 | 0.08 | 0.51 | 0.02 | 95 | 1010.8 |
| 20260505073342 | 52 | 193 | 0.0 | 0.0 | 0.08 | 0.51 | 0.02 | 95 | 1010.9 |
| 20260505072853 | 52 | 193 | 0.0 | 0.9 | 0.08 | 0.51 | 0.02 | 95 | 1011.0 |
| 20260505072343 | 51 | 134 | 0.0 | 0.9 | 0.04 | 0.47 | 0.01 | 95 | 1011.0 |
| 20260505071853 | 51 | 134 | 0.0 | 0.9 | 0.04 | 0.47 | 0.01 | 95 | 1011.0 |
| 20260505071341 | 51 | 134 | 0.0 | 0.9 | 0.04 | 0.47 | 0.01 | 95 | 1011.1 |
| 20260505070850 | 51 | 134 | 0.0 | 0.9 | 0.04 | 0.47 | 0.01 | 95 | 1011.0 |
| 20260505070343 | 51 | 134 | 0.0 | 0.9 | 0.04 | 0.47 | 0.01 | 95 | 1011.1 |
| 20260505065836 | 51 | 160 | 0.0 | 1.7 | 0.04 | 0.47 | 0.01 | 95 | 1011.2 |
| 20260505064845 | 51 | 141 | 0.0 | 0.9 | 0.00 | 0.43 | 0.00 | 95 | 1011.2 |
| 20260505064334 | 51 | 141 | 0.0 | 0.9 | 0.00 | 0.43 | 0.00 | 95 | 1011.2 |
| 20260505063846 | 51 | 143 | 0.0 | 0.9 | 0.00 | 0.43 | 0.00 | 95 | 1011.3 |
| 20260505063336 | 51 | 143 | 0.0 | 0.9 | 0.00 | 0.43 | 0.00 | 96 | 1011.3 |
| 20260505062847 | 50 | 143 | 0.0 | 0.0 | 0.00 | 0.43 | 0.00 | 96 | 1011.4 |
| 20260505062336 | 50 | 143 | 0.0 | 0.9 | 0.00 | 0.43 | 0.00 | 96 | 1011.3 |
| 20260505061850 | 50 | 143 | 0.0 | 0.9 | 0.00 | 0.43 | 0.00 | 96 | 1011.4 |
| 20260505061340 | 50 | 143 | 0.0 | 0.0 | 0.00 | 0.43 | 0.00 | 96 | 1011.5 |
| 20260505060849 | 50 | 160 | 0.0 | 0.9 | 0.00 | 0.43 | 0.00 | 96 | 1011.4 |
| 20260505060339 | 50 | 160 | 0.0 | 0.0 | 0.00 | 0.43 | 0.00 | 96 | 1011.4 |
| 20260505055849 | 50 | 160 | 0.0 | 1.7 | 0.00 | 0.43 | 0.00 | 96 | 1011.4 |
| 20260505055339 | 50 | 160 | 0.0 | 1.7 | 0.00 | 0.43 | 0.00 | 96 | 1011.5 |
| 20260505054930 | 50 | 169 | 0.0 | 1.7 | 0.00 | 0.43 | 0.00 | 97 | 1011.5 |
| 20260505054334 | 49 | 142 | 0.0 | 1.7 | 0.00 | 0.43 | 0.00 | 97 | 1011.5 |
| 20260505053844 | 49 | 142 | 0.0 | 0.9 | 0.00 | 0.43 | 0.00 | 97 | 1011.4 |
| 20260505053352 | 49 | 142 | 0.0 | 0.0 | 0.00 | 0.43 | 0.00 | 97 | 1011.3 |
| 20260505052846 | 49 | 142 | 0.0 | 0.9 | 0.00 | 0.43 | 0.00 | 97 | 1011.3 |
| 20260505052335 | 49 | 142 | 0.0 | 0.9 | 0.00 | 0.43 | 0.00 | 97 | 1011.3 |
| 20260505051845 | 49 | 142 | 0.0 | 0.9 | 0.00 | 0.43 | 0.00 | 97 | 1011.3 |
| 20260505051353 | 49 | 142 | 0.0 | 0.0 | 0.00 | 0.43 | 0.00 | 97 | 1011.2 |
| 20260505050845 | 49 | 142 | 0.0 | 0.0 | 0.00 | 0.43 | 0.00 | 97 | 1011.2 |
| 20260505050334 | 49 | 142 | 0.0 | 0.0 | 0.00 | 0.43 | 0.00 | 97 | 1011.1 |
| 20260505041345 | 48 | 142 | 0.0 | 0.9 | 0.00 | 0.43 | 0.00 | 97 | 1011.4 |
| 20260505040835 | 48 | 142 | 0.0 | 2.6 | 0.00 | 0.43 | 0.00 | 97 | 1011.5 |
| 20260505040349 | 48 | 142 | 0.0 | 2.6 | 0.00 | 0.43 | 0.00 | 97 | 1011.6 |
| 20260505035837 | 48 | 144 | 0.0 | 0.9 | 0.00 | 0.43 | 0.00 | 97 | 1011.6 |
| 20260505035349 | 48 | 144 | 0.0 | 0.9 | 0.00 | 0.43 | 0.00 | 97 | 1011.4 |
| 20260505034839 | 48 | 144 | 0.0 | 0.9 | 0.00 | 0.43 | 0.00 | 97 | 1011.4 |
| 20260505034349 | 48 | 144 | 0.0 | 0.9 | 0.00 | 0.43 | 0.00 | 97 | 1011.3 |
| 20260505033839 | 48 | 144 | 0.0 | 0.0 | 0.00 | 0.43 | 0.00 | 97 | 1011.3 |
| 20260505033350 | 48 | 144 | 0.0 | 0.0 | 0.00 | 0.43 | 0.00 | 97 | 1011.3 |
| 20260505032840 | 48 | 144 | 0.0 | 0.0 | 0.00 | 0.43 | 0.00 | 97 | 1011.3 |
| 20260505032334 | 47 | 144 | 0.0 | 0.0 | 0.00 | 0.43 | 0.00 | 97 | 1011.4 |
| 20260505031843 | 47 | 144 | 0.0 | 0.0 | 0.00 | 0.43 | 0.00 | 97 | 1011.5 |
| 20260505031353 | 47 | 144 | 0.0 | 0.0 | 0.00 | 0.43 | 0.00 | 97 | 1011.6 |
| 20260505030841 | 47 | 144 | 0.0 | 0.0 | 0.00 | 0.43 | 0.00 | 96 | 1011.6 |
| 20260505030351 | 47 | 144 | 0.0 | 0.9 | 0.00 | 0.43 | 0.00 | 96 | 1011.7 |
| 20260505025840 | 47 | 144 | 0.0 | 0.9 | 0.00 | 0.43 | 0.00 | 96 | 1011.7 |
| 20260505025351 | 47 | 144 | 0.0 | 0.0 | 0.00 | 0.43 | 0.00 | 96 | 1011.6 |
| 20260505024840 | 47 | 144 | 0.0 | 0.0 | 0.00 | 0.43 | 0.00 | 96 | 1011.6 |
| 20260505024350 | 47 | 144 | 0.0 | 0.0 | 0.00 | 0.43 | 0.00 | 96 | 1011.6 |
| 20260505023844 | 47 | 144 | 0.0 | 0.0 | 0.00 | 0.43 | 0.00 | 97 | 1011.7 |
| 20260505023334 | 47 | 144 | 0.0 | 0.0 | 0.00 | 0.43 | 0.00 | 97 | 1011.7 |
| 20260505022844 | 47 | 144 | 0.0 | 0.0 | 0.00 | 0.43 | 0.00 | 97 | 1011.8 |
| 20260505022334 | 47 | 144 | 0.0 | 0.0 | 0.00 | 0.43 | 0.00 | 96 | 1011.8 |
| 20260505021844 | 47 | 144 | 0.0 | 0.0 | 0.00 | 0.43 | 0.00 | 96 | 1011.9 |
| 20260505021353 | 47 | 144 | 0.0 | 0.0 | 0.00 | 0.43 | 0.00 | 96 | 1011.9 |
| 20260505020844 | 47 | 144 | 0.0 | 0.0 | 0.00 | 0.43 | 0.00 | 96 | 1012.0 |
| 20260505020352 | 47 | 144 | 0.0 | 0.0 | 0.00 | 0.43 | 0.00 | 96 | 1011.9 |
| 20260505015841 | 47 | 144 | 0.0 | 0.0 | 0.00 | 0.43 | 0.00 | 96 | 1011.9 |
| 20260505015334 | 47 | 144 | 0.0 | 0.0 | 0.00 | 0.43 | 0.00 | 96 | 1012.0 |
| 20260505014844 | 47 | 144 | 0.0 | 0.0 | 0.00 | 0.43 | 0.00 | 96 | 1012.1 |
| 20260505014334 | 47 | 144 | 0.0 | 0.0 | 0.00 | 0.43 | 0.00 | 96 | 1012.0 |
| 20260505013844 | 47 | 144 | 0.0 | 0.0 | 0.00 | 0.43 | 0.00 | 96 | 1011.9 |
| 20260505013335 | 47 | 144 | 0.0 | 0.9 | 0.00 | 0.43 | 0.00 | 96 | 1011.9 |
| 20260505012844 | 47 | 144 | 0.0 | 0.9 | 0.00 | 0.43 | 0.00 | 96 | 1012.0 |
| 20260505012352 | 47 | 144 | 0.0 | 0.9 | 0.00 | 0.43 | 0.00 | 96 | 1012.1 |
| 20260505011841 | 48 | 144 | 0.0 | 0.0 | 0.00 | 0.43 | 0.00 | 96 | 1012.0 |
| 20260505011334 | 48 | 144 | 0.0 | 0.0 | 0.00 | 0.43 | 0.00 | 96 | 1012.2 |
| 20260505010845 | 48 | 144 | 0.0 | 0.0 | 0.00 | 0.43 | 0.00 | 96 | 1012.2 |
| 20260505010335 | 48 | 144 | 0.0 | 0.0 | 0.00 | 0.43 | 0.00 | 96 | 1012.3 |
| 20260505005845 | 48 | 144 | 0.0 | 0.0 | 0.00 | 0.43 | 0.00 | 96 | 1012.3 |
| 20260505005335 | 47 | 144 | 0.0 | 0.0 | 0.00 | 0.43 | 0.00 | 96 | 1012.4 |
| 20260505004846 | 47 | 144 | 0.0 | 0.0 | 0.00 | 0.43 | 0.00 | 96 | 1012.5 |
| 20260505004335 | 47 | 144 | 0.0 | 0.0 | 0.00 | 0.43 | 0.00 | 96 | 1012.6 |
| 20260505003846 | 47 | 144 | 0.0 | 0.0 | 0.00 | 0.43 | 0.00 | 96 | 1012.7 |
| 20260505003336 | 47 | 144 | 0.0 | 0.0 | 0.00 | 0.43 | 0.00 | 96 | 1012.8 |
| 20260505002850 | 47 | 144 | 0.0 | 0.9 | 0.00 | 0.43 | 0.00 | 96 | 1012.8 |
| 20260505002341 | 47 | 144 | 0.0 | 0.9 | 0.00 | 0.43 | 0.00 | 95 | 1013.0 |
| 20260505001850 | 48 | 144 | 0.0 | 0.0 | 0.00 | 0.43 | 0.00 | 96 | 1012.8 |
| 20260505001340 | 48 | 144 | 0.0 | 0.0 | 0.00 | 0.43 | 0.00 | 96 | 1012.9 |
| 20260505000850 | 48 | 144 | 0.0 | 0.0 | 0.00 | 0.43 | 0.00 | 96 | 1012.9 |
| 20260505000339 | 48 | 144 | 0.0 | 0.0 | 0.00 | 0.43 | 0.00 | 96 | 1013.0 |
| 20260504235848 | 48 | 144 | 0.0 | 0.9 | 0.00 | 0.43 | 0.00 | 96 | 1013.0 |
| 20260504235338 | 48 | 144 | 0.0 | 0.9 | 0.00 | 0.43 | 0.00 | 96 | 1013.1 |
| 20260504234848 | 48 | 144 | 0.0 | 0.0 | 0.00 | 0.43 | 0.00 | 95 | 1013.1 |
| 20260504234342 | 48 | 144 | 0.0 | 0.0 | 0.00 | 0.43 | 0.00 | 95 | 1013.2 |
| 20260504233853 | 48 | 144 | 0.0 | 0.9 | 0.00 | 0.43 | 0.00 | 95 | 1013.4 |
| 20260504233343 | 48 | 144 | 0.0 | 0.9 | 0.00 | 0.43 | 0.00 | 95 | 1013.4 |
| 20260504232852 | 48 | 144 | 0.0 | 0.0 | 0.00 | 0.43 | 0.00 | 95 | 1013.4 |
| 20260504232341 | 48 | 144 | 0.0 | 0.0 | 0.00 | 0.43 | 0.00 | 95 | 1013.4 |
| 20260504231851 | 48 | 144 | 0.0 | 0.0 | 0.00 | 0.43 | 0.00 | 95 | 1013.5 |
| 20260504231340 | 48 | 144 | 0.0 | 0.0 | 0.00 | 0.43 | 0.00 | 95 | 1013.6 |
| 20260504230850 | 48 | 144 | 0.0 | 0.9 | 0.00 | 0.43 | 0.00 | 95 | 1013.7 |
| 20260504230345 | 48 | 144 | 0.9 | 0.9 | 0.00 | 0.43 | 0.00 | 95 | 1013.7 |
| 20260504225836 | 48 | 144 | 0.0 | 0.9 | 0.00 | 0.43 | 0.00 | 95 | 1013.6 |
| 20260504225347 | 49 | 144 | 0.0 | 0.9 | 0.00 | 0.43 | 0.00 | 95 | 1013.7 |
| 20260504224837 | 49 | 144 | 0.0 | 0.0 | 0.00 | 0.43 | 0.00 | 95 | 1013.7 |
| 20260504224348 | 49 | 144 | 0.0 | 0.0 | 0.00 | 0.43 | 0.00 | 95 | 1013.7 |
| 20260504223838 | 49 | 144 | 0.0 | 0.0 | 0.00 | 0.43 | 0.00 | 95 | 1013.7 |
| 20260504223348 | 49 | 144 | 0.0 | 0.0 | 0.00 | 0.43 | 0.00 | 94 | 1013.7 |
| 20260504222838 | 49 | 144 | 0.0 | 0.0 | 0.00 | 0.43 | 0.00 | 95 | 1013.8 |
| 20260504222348 | 49 | 144 | 0.0 | 0.0 | 0.00 | 0.43 | 0.00 | 94 | 1013.8 |
| 20260504221842 | 49 | 144 | 0.0 | 0.0 | 0.00 | 0.43 | 0.00 | 94 | 1013.8 |
| 20260504221351 | 50 | 144 | 0.0 | 0.9 | 0.00 | 0.43 | 0.00 | 94 | 1013.9 |
| 20260504220840 | 50 | 144 | 0.0 | 0.9 | 0.00 | 0.43 | 0.00 | 95 | 1013.9 |
| 20260504220348 | 50 | 144 | 0.0 | 0.0 | 0.00 | 0.43 | 0.09 | 95 | 1013.9 |
| 20260504215836 | 50 | 144 | 0.0 | 0.0 | 0.00 | 0.43 | 0.09 | 94 | 1014.0 |
| 20260504215346 | 50 | 144 | 0.0 | 0.0 | 0.00 | 0.43 | 0.09 | 94 | 1014.0 |
| 20260504214836 | 50 | 144 | 0.0 | 0.9 | 0.00 | 0.43 | 0.09 | 94 | 1014.0 |
| 20260504214346 | 50 | 144 | 0.0 | 0.9 | 0.00 | 0.43 | 0.09 | 94 | 1013.9 |
| 20260504213840 | 50 | 144 | 0.0 | 0.9 | 0.00 | 0.43 | 0.09 | 94 | 1014.0 |
| 20260504213349 | 50 | 144 | 0.0 | 0.9 | 0.00 | 0.43 | 0.09 | 94 | 1014.0 |
| 20260504212839 | 50 | 144 | 0.0 | 0.9 | 0.00 | 0.43 | 0.09 | 93 | 1014.0 |